Home > Weather > Itzehoe > Past weeks

Flag for Germany Past Weather in Itzehoe, Schleswig-Holstein, Germany — Yesterday and Last 2 Weeks

Now
54 °F

Passing clouds.


Feels Like: 54 °F
Forecast: 56 / 67 °F
Wind: 1 mph from North

Location: Hohn

Current Time: Jul 31, 2016 at 7:30:59 AM

Latest Report: Jul 31, 2016 at 6:20 AM


Visibility: N/A

Pressure: 29.89 "Hg

Humidity: 94%

Dew Point: 52 °F

Location of ItzehoeLocation

Past Weather in Itzehoe — Graph

°F

Itzehoe Temperature Yesterday

Maximum temperature yesterday: 70 °F (at 2:20 PM)
Minimum temperature yesterday: 54 °F (at 11:20 PM)
Average temperature yesterday: 64 °F

High & Low Weather Summary for the Past Weeks

 TemperatureHumidityPressure
High84 °F (Jul 24, 4:20 PM)100% (Jul 16, 5:20 PM)30.15 "Hg (Jul 16, 5:20 PM)
Low50 °F (Jul 17, 4:20 AM)37% (Jul 24, 4:20 PM)29.77 "Hg (Jul 30, 5:20 AM)
Average66 °F79%30.02 "Hg
* Reported Jul 16 6:20 AM — Jul 31 6:20 AM, Itzehoe, Weather by CustomWeather, © 2016

Note: Actual official high and low records may vary slightly from our data, if they occured in-between our weather recording intervals... More about our weather records

Advertising

Itzehoe Weather History for the Previous 24 Hours

Scroll right to see more
 ConditionsComfort  
Time TempWeatherWind HumidityBarometerVisibility
6:20 AM
Sun, Jul 31
54 °FPassing clouds.1 mph94%29.89 "HgN/A
5:20 AM52 °FPassing clouds.No wind100%29.89 "HgN/A
4:20 AM54 °FPassing clouds.No wind94%29.89 "HgN/A
3:20 AM54 °FPassing clouds.2 mph94%29.89 "HgN/A
2:20 AM52 °FFog.No wind94%29.89 "HgN/A
12:20 AM52 °FFog.1 mph100%29.92 "HgN/A
11:20 PM
Sat, Jul 30
54 °FPassing clouds.1 mph94%29.89 "HgN/A
10:20 PM55 °FPartly sunny.3 mph88%29.89 "HgN/A
9:20 PM61 °FPartly sunny.5 mph77%29.89 "HgN/A
8:20 PM63 °FScattered clouds.8 mph73%29.89 "HgN/A
7:20 PM66 °FScattered clouds.12 mph64%29.89 "HgN/A
6:20 PM66 °FScattered clouds.14 mph64%29.89 "HgN/A
5:20 PM70 °FPassing clouds.15 mph57%29.86 "HgN/A
4:20 PM70 °FPassing clouds.15 mph57%29.86 "HgN/A
3:20 PM70 °FPassing clouds.16 mph60%29.83 "HgN/A
2:20 PM70 °FScattered clouds.17 mph64%29.83 "HgN/A
1:20 PM66 °FBroken clouds.13 mph83%29.80 "HgN/A
12:20 PM66 °FSprinkles. Broken clouds.14 mph83%29.80 "HgN/A
11:20 AM66 °FScattered clouds.7 mph88%29.80 "HgN/A
10:20 AM63 °FSprinkles. Broken clouds.5 mph94%29.80 "Hg4 mi
9:55 AM61 °FRain showers. Fog.6 mph100%29.80 "Hg2 mi
9:20 AM66 °FBroken clouds.12 mph88%29.77 "Hg4 mi
8:20 AM63 °FPartly sunny.8 mph94%29.77 "Hg4 mi
7:20 AM63 °FRain showers. Fog.6 mph94%29.77 "Hg2 mi
Weather by CustomWeather, © 2016

See weather overviewHow to use our weather pages